| time (UTC) | temp F | wind direction | speed MPH | gust MPH | rain 1hr in | rain 24hr in | rain mn in | humidity % | barometer mb |
| 20260507003034 | 56 | 0 | 0.0 | 3.0 | 0.00 | 0.03 | 0.02 | 50 | 1016.9 |
| 20260507001548 | 57 | 12 | 1.0 | 5.0 | 0.00 | 0.03 | 0.02 | 48 | 1016.8 |
| 20260507000041 | 57 | 323 | 0.0 | 3.0 | 0.00 | 0.03 | 0.02 | 49 | 1016.8 |
| 20260506234535 | 58 | 319 | 0.0 | 6.0 | 0.00 | 0.03 | 0.02 | 45 | 1017.0 |
| 20260506233043 | 60 | 0 | 0.0 | 2.0 | 0.00 | 0.03 | 0.02 | 43 | 1017.0 |
| 20260506231543 | 60 | 315 | 1.0 | 4.0 | 0.00 | 0.03 | 0.02 | 45 | 1016.9 |
| 20260506230045 | 61 | 300 | 0.0 | 4.0 | 0.00 | 0.03 | 0.02 | 43 | 1016.7 |
| 20260506224542 | 61 | 324 | 2.0 | 8.0 | 0.00 | 0.03 | 0.02 | 45 | 1016.8 |
| 20260506223036 | 62 | 25 | 0.0 | 3.0 | 0.00 | 0.03 | 0.02 | 45 | 1017.0 |
| 20260506221535 | 62 | 0 | 1.0 | 4.0 | 0.00 | 0.03 | 0.02 | 39 | 1017.0 |
| 20260506220040 | 62 | 340 | 1.0 | 8.0 | 0.00 | 0.03 | 0.02 | 48 | 1017.1 |
| 20260506214550 | 63 | 11 | 0.0 | 4.0 | 0.00 | 0.03 | 0.02 | 42 | 1017.2 |
| 20260506213041 | 62 | 18 | 0.0 | 4.0 | 0.00 | 0.03 | 0.02 | 43 | 1017.4 |
| 20260506211542 | 62 | 346 | 1.0 | 4.0 | 0.00 | 0.03 | 0.02 | 44 | 1017.4 |
| 20260506210041 | 62 | 290 | 1.0 | 6.0 | 0.00 | 0.03 | 0.02 | 48 | 1017.8 |
| 20260506204542 | 60 | 27 | 2.0 | 6.0 | 0.00 | 0.03 | 0.02 | 50 | 1018.0 |
| 20260506203035 | 62 | 22 | 0.0 | 8.0 | 0.00 | 0.03 | 0.02 | 49 | 1018.1 |
| 20260506201534 | 60 | 332 | 3.0 | 8.0 | 0.00 | 0.03 | 0.02 | 53 | 1018.3 |
| 20260506200043 | 61 | 0 | 1.0 | 4.0 | 0.00 | 0.03 | 0.02 | 53 | 1018.5 |
| 20260506194536 | 60 | 11 | 1.0 | 8.0 | 0.00 | 0.04 | 0.02 | 47 | 1018.5 |
| 20260506193035 | 59 | 87 | 1.0 | 8.0 | 0.00 | 0.04 | 0.02 | 49 | 1018.6 |
| 20260506191548 | 60 | 307 | 1.0 | 5.0 | 0.00 | 0.04 | 0.02 | 48 | 1018.7 |
| 20260506190040 | 61 | 0 | 1.0 | 4.0 | 0.00 | 0.04 | 0.02 | 49 | 1018.7 |
| 20260506184540 | 60 | 42 | 2.0 | 5.0 | 0.00 | 0.04 | 0.02 | 49 | 1018.8 |
| 20260506183035 | 57 | 18 | 1.0 | 7.0 | 0.00 | 0.04 | 0.02 | 48 | 1018.9 |
| 20260506181549 | 57 | 306 | 0.0 | 2.0 | 0.00 | 0.04 | 0.02 | 52 | 1019.2 |
| 20260506180058 | 56 | 298 | 0.0 | 4.0 | 0.00 | 0.04 | 0.02 | 49 | 1019.2 |
| 20260506174541 | 56 | 37 | 3.0 | 5.0 | 0.00 | 0.05 | 0.02 | 50 | 1019.3 |
| 20260506173045 | 56 | 329 | 1.0 | 5.0 | 0.00 | 0.05 | 0.02 | 51 | 1019.5 |
| 20260506171535 | 56 | 25 | 1.0 | 5.0 | 0.00 | 0.05 | 0.02 | 55 | 1019.3 |
| 20260506170035 | 56 | 34 | 2.0 | 6.0 | 0.00 | 0.05 | 0.02 | 54 | 1019.4 |
| 20260506164534 | 56 | 305 | 1.0 | 3.0 | 0.00 | 0.13 | 0.02 | 50 | 1019.3 |
| 20260506163044 | 57 | 0 | 0.0 | 5.0 | 0.00 | 0.13 | 0.02 | 55 | 1019.2 |
| 20260506161536 | 56 | 314 | 1.0 | 5.0 | 0.00 | 0.13 | 0.02 | 53 | 1019.0 |
| 20260506160037 | 56 | 30 | 2.0 | 8.0 | 0.00 | 0.13 | 0.02 | 54 | 1018.9 |
| 20260506154537 | 58 | 27 | 3.0 | 8.0 | 0.00 | 0.14 | 0.02 | 48 | 1018.7 |
| 20260506153040 | 57 | 336 | 1.0 | 6.0 | 0.00 | 0.14 | 0.02 | 57 | 1018.6 |
| 20260506151541 | 56 | 335 | 1.0 | 5.0 | 0.00 | 0.14 | 0.02 | 58 | 1018.6 |
| 20260506150040 | 55 | 13 | 2.0 | 6.0 | 0.00 | 0.14 | 0.02 | 60 | 1018.6 |
| 20260506144546 | 56 | 23 | 1.0 | 5.0 | 0.00 | 0.18 | 0.02 | 63 | 1018.6 |
| 20260506143043 | 55 | 306 | 0.0 | 5.0 | 0.00 | 0.18 | 0.02 | 65 | 1018.6 |
| 20260506141541 | 55 | 307 | 0.0 | 4.0 | 0.00 | 0.18 | 0.02 | 64 | 1018.3 |
| 20260506140043 | 54 | 26 | 0.0 | 3.0 | 0.00 | 0.18 | 0.02 | 71 | 1018.3 |
| 20260506134536 | 53 | 339 | 1.0 | 5.0 | 0.00 | 0.25 | 0.02 | 72 | 1017.9 |
| 20260506133041 | 52 | 0 | 0.0 | 2.0 | 0.00 | 0.25 | 0.02 | 76 | 1017.7 |
| 20260506131536 | 49 | 0 | 0.0 | 0.0 | 0.00 | 0.25 | 0.02 | 84 | 1017.4 |
| 20260506130041 | 48 | 324 | 0.0 | 0.0 | 0.00 | 0.25 | 0.02 | 87 | 1017.6 |
| 20260506124540 | 47 | 0 | 0.0 | 0.0 | 0.00 | 0.26 | 0.02 | 90 | 1017.5 |
| 20260506123041 | 46 | 0 | 0.0 | 0.0 | 0.00 | 0.26 | 0.02 | 92 | 1017.2 |
| 20260506121535 | 45 | 0 | 0.0 | 0.0 | 0.00 | 0.26 | 0.02 | 93 | 1016.6 |
| 20260506120035 | 45 | 0 | 0.0 | 0.0 | 0.00 | 0.26 | 0.02 | 92 | 1016.3 |
| 20260506114541 | 45 | 0 | 0.0 | 0.0 | 0.00 | 0.27 | 0.02 | 91 | 1016.1 |
| 20260506113042 | 45 | 0 | 0.0 | 0.0 | 0.00 | 0.27 | 0.02 | 90 | 1016.0 |
| 20260506111540 | 45 | 0 | 0.0 | 1.0 | 0.00 | 0.27 | 0.02 | 90 | 1016.0 |
| 20260506110038 | 45 | 297 | 0.0 | 3.0 | 0.00 | 0.27 | 0.02 | 90 | 1016.5 |
| 20260506104535 | 45 | 264 | 0.0 | 2.0 | 0.00 | 0.28 | 0.02 | 90 | 1016.8 |
| 20260506103041 | 45 | 208 | 0.0 | 2.0 | 0.00 | 0.28 | 0.02 | 91 | 1016.4 |
| 20260506101542 | 45 | 250 | 0.0 | 1.0 | 0.00 | 0.28 | 0.02 | 93 | 1016.8 |
| 20260506100042 | 45 | 0 | 0.0 | 1.0 | 0.00 | 0.28 | 0.02 | 94 | 1015.8 |
| 20260506094539 | 45 | 0 | 0.0 | 0.0 | 0.00 | 0.28 | 0.02 | 94 | 1015.1 |
| 20260506093040 | 44 | 0 | 0.0 | 0.0 | 0.00 | 0.28 | 0.02 | 94 | 1015.2 |
| 20260506091544 | 44 | 0 | 0.0 | 0.0 | 0.00 | 0.28 | 0.02 | 93 | 1015.3 |
| 20260506090041 | 44 | 0 | 0.0 | 0.0 | 0.00 | 0.28 | 0.02 | 93 | 1015.3 |
| 20260506084541 | 44 | 0 | 0.0 | 0.0 | 0.00 | 0.35 | 0.02 | 93 | 1015.2 |
| 20260506083042 | 44 | 0 | 0.0 | 1.0 | 0.00 | 0.35 | 0.02 | 93 | 1015.6 |
| 20260506081537 | 45 | 0 | 0.0 | 1.0 | 0.00 | 0.35 | 0.02 | 92 | 1015.1 |
| 20260506073050 | 45 | 0 | 0.0 | 1.0 | 0.02 | 0.55 | 0.02 | 89 | 1014.2 |
| 20260506071541 | 45 | 0 | 0.0 | 2.0 | 0.02 | 0.55 | 0.02 | 89 | 1014.5 |
| 20260506061534 | 46 | 0 | 0.0 | 3.0 | 0.00 | 0.87 | 0.00 | 85 | 1015.5 |
| 20260506044548 | 48 | 317 | 2.0 | 7.0 | 0.00 | 0.90 | 0.90 | 83 | 1014.7 |
| 20260506043036 | 48 | 0 | 0.0 | 0.0 | 0.00 | 0.90 | 0.90 | 96 | 1014.4 |
| 20260506041547 | 48 | 0 | 0.0 | 0.0 | 0.00 | 0.90 | 0.90 | 96 | 1014.2 |
| 20260506040039 | 48 | 0 | 0.0 | 0.0 | 0.00 | 0.90 | 0.90 | 96 | 1013.8 |
| 20260506034544 | 48 | 0 | 0.0 | 1.0 | 0.00 | 0.90 | 0.90 | 96 | 1014.1 |
| 20260506033042 | 47 | 0 | 0.0 | 1.0 | 0.00 | 0.90 | 0.90 | 95 | 1013.8 |
| 20260506031536 | 48 | 0 | 0.0 | 1.0 | 0.00 | 0.90 | 0.90 | 95 | 1013.6 |
| 20260506030035 | 48 | 155 | 0.0 | 0.0 | 0.00 | 0.90 | 0.90 | 95 | 1013.4 |
| 20260506024540 | 48 | 151 | 0.0 | 1.0 | 0.00 | 0.90 | 0.90 | 95 | 1013.0 |
| 20260506023041 | 48 | 0 | 0.0 | 0.0 | 0.00 | 0.90 | 0.90 | 94 | 1012.8 |
| 20260506021546 | 47 | 0 | 0.0 | 1.0 | 0.00 | 0.90 | 0.90 | 94 | 1012.7 |
| 20260506020034 | 47 | 0 | 0.0 | 0.0 | 0.00 | 0.90 | 0.90 | 92 | 1012.4 |
| 20260506014541 | 48 | 0 | 0.0 | 0.0 | 0.00 | 0.90 | 0.90 | 91 | 1012.2 |
| 20260506013046 | 49 | 0 | 0.0 | 0.0 | 0.00 | 0.90 | 0.90 | 90 | 1012.1 |
| 20260506011559 | 50 | 0 | 0.0 | 0.0 | 0.01 | 0.90 | 0.90 | 89 | 1012.0 |
| 20260506010035 | 50 | 0 | 0.0 | 0.0 | 0.01 | 0.90 | 0.90 | 88 | 1011.8 |
| 20260506004541 | 51 | 0 | 0.0 | 0.0 | 0.01 | 0.90 | 0.90 | 87 | 1011.6 |